Weather History for Kulusuk, Greenland

Change the Weather History Date:

Thursday, August 15, 2013

  Actual Average Record
Temperature  
Mean Temperature 42 °F -  
Max Temperature 44 °F 42 °F 100 °F (2002)
Min Temperature 39 °F 36 °F 33 °F (1996)
Degree Days  
Heating Degree Days 24    
Moisture  
Dew Point 37 °F    
Average Humidity 82    
Maximum Humidity 93    
Minimum Humidity 71    
Precipitation  
Precipitation 0.00 in - - ()
Sea Level Pressure  
Sea Level Pressure 29.33 in    
Wind  
Wind Speed 6 mph ()    
Max Wind Speed 13 mph    
Max Gust Speed -    
Visibility 6.2 miles    
Events      
Averages and records for this station are not official NWS values.
T = Trace of Precipitation, MM = Missing Value Source: Averaged Metar Reports

Daily Weather History Graph

Daily Weather History Graph

Search for Another Location

Airport:

Trip Planner

Search our weather history database for the weather conditions in past years. The results will help you decide how hot, cold, wet, or windy it might be!

Date:

Astronomy

Aug. 15, 2013 Rise Set
Actual Time 4:09 AM WGST 8:53 PM WGST
Civil Twilight 2:56 AM WGST 10:04 PM WGST
Nautical Twilight 1:05 AM WGST 12:00 AM WGST
Astronomical Twilight Sun does not rise Sun does not rise
Moon 4:56 PM WGST (8/15) 10:10 PM WGST (8/15)
Length of Visible Light 19h 08m
Length of Day
16h 43m
Waxing Gibbous, 63% of the Moon is Illuminated
Aug 15
Waxing Gibbous
Aug 20
Full
Aug 28
Last Quarter
Sep 5
New
Sep 12
First Quarter

Hourly Weather History & Observations

Time (WGST) Temp. Windchill Dew Point Humidity Pressure Visibility Wind Dir Wind Speed Gust Speed Precip Events Conditions
12:50 AM 44.6 °F 38.4 °F 41.0 °F 87% 29.27 in - East 12.7 mph - N/A   Overcast
1:00 AM 44 °F - 40 °F 79% 29.29 in - ESE 8.1 mph - -   Overcast
1:50 AM 41.0 °F 37.1 °F 39.2 °F 93% 29.27 in - West 5.8 mph - N/A   Overcast
2:50 AM 39.2 °F - 37.4 °F 93% 29.27 in - ENE 1.2 mph - N/A   Overcast
3:50 AM 39.2 °F 35.0 °F 37.4 °F 93% 29.27 in - East 5.8 mph - N/A   Overcast
4:00 AM 40 °F - 37 °F 85% 29.28 in - East 5.8 mph - -   Overcast
4:50 AM 39.2 °F 33.0 °F 37.4 °F 93% 29.27 in - ENE 9.2 mph - N/A   Mostly Cloudy
5:50 AM 41.0 °F 37.1 °F 37.4 °F 87% 29.27 in 6.2 mi WSW 5.8 mph - N/A   Light Drizzle
6:50 AM 39.2 °F 35.9 °F 37.4 °F 93% 29.30 in 6.2 mi WSW 4.6 mph - N/A   Mostly Cloudy
7:00 AM 40 °F - 37 °F 87% 29.30 in - West 4.6 mph - -   Scattered Clouds
7:50 AM 41.0 °F 39.0 °F 37.4 °F 87% 29.30 in 6.2 mi SW 3.5 mph - N/A   Mostly Cloudy
8:50 AM 42.8 °F 38.6 °F 37.4 °F 81% 29.30 in 6.2 mi WSW 6.9 mph - N/A   Mostly Cloudy
9:50 AM 44.6 °F 42.2 °F 37.4 °F 76% 29.30 in 6.2 mi SW 4.6 mph - N/A   Mostly Cloudy
10:00 AM 43 °F - 38 °F 77% 29.32 in - West 5.8 mph - -   Mostly Cloudy
10:50 AM 42.8 °F 38.6 °F 39.2 °F 87% 29.33 in 6.2 mi WSW 6.9 mph - N/A   Mostly Cloudy
11:50 AM 42.8 °F 39.3 °F 37.4 °F 81% 29.33 in 6.2 mi NE 5.8 mph - N/A   Mostly Cloudy
12:50 PM 42.8 °F 38.6 °F 35.6 °F 76% 29.33 in 6.2 mi NE 6.9 mph - N/A   Mostly Cloudy
1:00 PM 44 °F - 38 °F 71% 29.34 in - NE 5.8 mph - -   Mostly Cloudy
1:50 PM 44.6 °F 41.4 °F 37.4 °F 76% 29.33 in 6.2 mi West 5.8 mph - N/A   Mostly Cloudy
2:50 PM 42.8 °F 39.3 °F 37.4 °F 81% 29.33 in 6.2 mi WNW 5.8 mph - N/A   Mostly Cloudy
3:50 PM 42.8 °F 37.5 °F 37.4 °F 81% 29.36 in 6.2 mi West 9.2 mph - N/A   Mostly Cloudy
4:50 PM 42.8 °F 38.6 °F 37.4 °F 81% 29.36 in 6.2 mi SW 6.9 mph - N/A   Mostly Cloudy
7:00 PM 41 °F - 35 °F 71% 29.40 in - WSW 8.1 mph - -   Scattered Clouds
7:50 PM 41.0 °F 36.4 °F 35.6 °F 81% 29.39 in - West 6.9 mph - N/A   Overcast
8:50 PM 41.0 °F 39.0 °F 35.6 °F 81% 29.42 in - WSW 3.5 mph - N/A   Overcast
9:50 PM 41.0 °F 38.0 °F 35.6 °F 81% 29.44 in - WSW 4.6 mph - N/A   Overcast
10:00 PM 41 °F - 35 °F 71% 29.45 in - SW 5.8 mph - -   Overcast
10:50 PM 41.0 °F 39.0 °F 35.6 °F 81% 29.44 in - West 3.5 mph - N/A   Overcast
11:50 PM 41.0 °F - 35.6 °F 81% 29.44 in - SW 2.3 mph - N/A   Mostly Cloudy